Date,TemperatureHighF,TemperatureAvgF,TemperatureLowF,DewpointHighF,DewpointAvgF,DewpointLowF,HumidityHigh,HumidityAvg,HumidityLow,PressureMaxIn,PressureMinIn,WindSpeedMaxMPH,WindSpeedAvgMPH,GustSpeedMaxMPH,PrecipitationSumIn
2013-4-1,54.2,46.5,37.8,44.7,38.2,30.9,94,74,58,29.65,29.50,20,8,25,0.00
2013-4-2,47.4,38.5,29.5,30.4,21.1,14.6,76,52,29,29.84,29.65,14,7,22,0.00
2013-4-3,51.0,38.4,27.7,23.5,16.1,13.1,58,41,23,30.01,29.84,12,6,16,0.00
2013-4-4,37.9,31.4,28.0,30.6,21.5,10.7,97,70,35,30.00,29.71,19,6,21,0.06
2013-4-5,53.0,40.4,31.2,40.1,33.0,30.2,98,78,46,29.78,29.67,13,5,23,0.29
2013-4-6,56.7,47.1,35.3,38.1,32.9,27.6,76,59,43,29.93,29.77,11,6,17,0.00
2013-4-7,62.3,51.1,41.1,46.9,39.7,31.7,82,66,53,29.88,29.76,16,10,23,0.00
2013-4-8,69.2,56.6,47.0,53.0,45.6,40.4,78,67,51,29.81,29.70,16,7,27,0.00
2013-4-9,74.8,63.4,49.0,54.2,50.8,45.2,89,65,44,29.83,29.69,15,6,22,0.00
2013-4-10,78.3,67.1,54.4,59.3,54.3,50.3,87,65,46,29.73,29.56,15,6,23,0.00
2013-4-11,70.8,63.3,54.2,59.5,55.1,51.0,94,75,58,29.57,29.35,22,10,32,0.52
2013-4-12,66.3,58.5,49.4,59.1,48.5,37.3,97,72,42,29.44,29.24,23,13,29,1.32
2013-4-13,63.4,53.1,44.7,42.1,34.7,30.0,68,51,30,29.70,29.43,15,9,28,0.00
2013-4-14,66.9,56.5,43.0,45.5,38.3,31.4,68,51,35,29.77,29.65,15,7,23,0.00
2013-4-15,54.8,49.6,47.2,51.2,48.6,45.9,99,97,72,29.90,29.65,18,10,27,0.63
2013-4-16,68.7,58.3,51.3,61.7,55.3,51.0,99,91,72,29.98,29.85,11,7,17,0.01
2013-4-17,69.7,60.2,55.2,59.9,55.9,53.5,96,86,68,29.89,29.78,13,4,19,0.13
2013-4-18,67.4,61.5,56.7,59.8,56.5,54.2,97,84,66,29.79,29.59,17,8,25,0.00
2013-4-19,61.8,56.8,42.8,60.6,54.9,36.1,98,93,77,29.59,29.32,29,16,44,1.25
2013-4-20,53.0,42.1,33.0,35.4,28.7,24.5,78,60,38,29.99,29.48,19,10,30,0.00
2013-4-21,50.7,42.0,31.8,36.7,30.5,24.6,82,64,52,30.17,29.99,16,6,23,0.00
2013-4-22,53.2,43.0,32.1,37.0,31.4,24.9,92,66,41,30.15,29.97,14,7,16,0.00
2013-4-23,62.5,48.9,34.2,48.9,40.5,30.2,88,74,58,29.99,29.80,11,5,18,0.00
2013-4-24,64.3,55.2,46.1,55.5,50.2,44.0,94,84,68,29.80,29.62,19,8,27,0.09
2013-4-25,60.5,47.2,33.6,45.6,32.4,19.8,93,62,21,30.00,29.71,14,8,21,0.00
2013-4-26,60.3,49.8,37.7,41.9,34.2,28.3,69,55,41,30.11,30.00,9,4,15,0.00
2013-4-27,55.8,51.3,47.0,48.8,43.2,34.9,97,75,52,30.05,29.92,10,4,14,0.10
2013-4-28,48.9,47.7,46.4,48.3,46.8,45.3,98,97,94,29.91,29.70,14,7,17,0.91
2013-4-29,60.3,53.4,48.4,57.0,52.2,47.9,99,96,88,29.75,29.65,10,3,14,0.10
2013-4-30,64.3,56.0,51.1,57.0,53.1,50.5,99,91,71,29.85,29.67,15,6,19,0.00